sat.trackr.live / text

‹ back to catalog

STARLINK-2614

NORAD 48380 · 2021-038AD

PAYLOAD ACTIVE UNKNOWN

§ Identity

Operator
Country
US
Launch date
2021-05-04
Launch site
AFETR
Launch vehicle
Mass (kg)
RCS (m²)

Purposes: comms

External: N2YO · Heavens-Above · Gunter

§ Orbital elements

Epoch: 2026-09-19T10:29:31.448256Z

Period
94.01 min
Inclination
53.1619°
Eccentricity
0.0001236
Mean motion
15.31692583 rev/d
Perigee alt
469.9 km
Apogee alt
471.6 km
Semi-major
6,848.9 km
B*
1.9492e-5
RAAN
163.9641°
Arg perigee
99.1494°
Mean anomaly
260.9647°
Rev number
29,694

§ Raw data

STARLINK-26141 48380U 21038AD  26262.43716954  .00000240  00000+0  19492-4 0  99982 48380  53.1619 163.9641 0001236  99.1494 260.9647 15.31692583296945

JSON: /api/v1/satellites/48380 · /tle

For live sub-satellite position, see the globe view (requires WebGL).

§ Visibility from observer

Set your observer location to see the next 7 days of passes ≥ 10°. The values pass through the URL so the page stays shareable.

No JS? Fill the form by hand. The geolocation button needs JavaScript.